Meadville, PA

6:18 AM EST on December 13, 2019 (GMT -0500)
Port Meadville

Weather History for KGKJ - October, 2019

Change the Weather History Date:

Sunday, October 6, 2019

  Actual Average Record
Temperature  
Mean Temperature 58 °F -  
Max Temperature 68 °F 64 °F 88 °F (1951)
Min Temperature 51 °F 41 °F 1 °F (2017)
Degree Days  
Heating Degree Days 6    
Growing Degree Days 8 (Base 50)    
Moisture  
Dew Point 54 °F    
Average Humidity 81    
Maximum Humidity 93    
Minimum Humidity 73    
Precipitation  
Precipitation 0.31 in - - ()
Sea Level Pressure  
Sea Level Pressure 30.09 in    
Wind  
Wind Speed 5 mph ()    
Max Wind Speed 13 mph    
Max Gust Speed 20 mph    
Visibility 10.0 miles    
Events Rain    
Averages and records for this station are not official NWS values.
T = Trace of Precipitation, MM = Missing Value Source: Averaged Metar Reports

Daily Weather History Graph

Daily Weather History Graph

Search for Another Location

Airport or City:

Astronomy

Oct. 06, 2019 Rise Set
Actual Time 7:22 AM EDT 6:54 PM EDT
Civil Twilight 6:55 AM EDT 7:22 PM EDT
Nautical Twilight 6:22 AM EDT 7:54 PM EDT
Astronomical Twilight 5:50 AM EDT 8:26 PM EDT
Moon 3:38 PM EDT (10/6) 12:13 AM EDT (10/6)
Length of Visible Light 12h 27m
Length of Day
11h 31m
First Quarter, 59% of the Moon is Illuminated
Oct 6
First Quarter
Oct 13
Full
Oct 21
Last Quarter
Oct 27
New
Nov 4
First Quarter

Hourly Weather History & Observations

Time (EDT) Temp. Dew Point Humidity Pressure Visibility Wind Dir Wind Speed Gust Speed Precip Events Conditions
12:53 AM 51.1 °F 44.1 °F 77% 30.09 in 10.0 mi Variable 3.5 mph - N/A   Clear
1:53 AM 52.0 °F 45.0 °F 77% 30.09 in 10.0 mi Variable 5.8 mph - N/A   Partly Cloudy
2:53 AM 52.0 °F 45.0 °F 77% 30.06 in 10.0 mi Variable 3.5 mph - N/A   Clear
3:53 AM 52.0 °F 45.0 °F 77% 30.05 in 10.0 mi Variable 5.8 mph - N/A   Clear
4:53 AM 53.1 °F 46.0 °F 77% 30.05 in 10.0 mi Variable 4.6 mph - N/A   Scattered Clouds
5:53 AM 54.0 °F 46.9 °F 77% 30.07 in 10.0 mi Variable 4.6 mph - N/A   Overcast
6:53 AM 55.0 °F 46.9 °F 74% 30.09 in 10.0 mi Variable 4.6 mph - N/A   Mostly Cloudy
7:53 AM 55.0 °F 48.9 °F 80% 30.09 in 10.0 mi SSE 4.6 mph - 0.00 in Rain Light Rain
8:53 AM 55.9 °F 50.0 °F 80% 30.10 in 10.0 mi Variable 3.5 mph - 0.00 in   Overcast
9:53 AM 57.9 °F 51.1 °F 78% 30.09 in 10.0 mi South 6.9 mph - N/A   Overcast
10:53 AM 61.0 °F 53.1 °F 75% 30.10 in 10.0 mi South 8.1 mph - 0.01 in   Overcast
11:53 AM 64.0 °F 55.0 °F 73% 30.09 in 10.0 mi SSW 11.5 mph 17.3 mph N/A   Mostly Cloudy
12:53 PM 64.9 °F 55.9 °F 73% 30.10 in 10.0 mi SSW 10.4 mph - N/A   Overcast
1:37 PM 66.0 °F 57.0 °F 73% 30.10 in 10.0 mi South 12.7 mph 19.6 mph N/A   Overcast
1:46 PM 64.9 °F 57.0 °F 75% 30.10 in 10.0 mi SSW 11.5 mph 18.4 mph N/A   Overcast
1:53 PM 64.9 °F 57.0 °F 75% 30.09 in 10.0 mi SW 8.1 mph 18.4 mph N/A   Overcast
2:53 PM 66.9 °F 57.9 °F 73% 30.07 in 10.0 mi South 9.2 mph 16.1 mph N/A   Overcast
3:53 PM 66.9 °F 59.0 °F 76% 30.07 in 10.0 mi SSW 10.4 mph 18.4 mph N/A   Overcast
4:53 PM 66.0 °F 60.1 °F 81% 30.08 in 10.0 mi SSW 8.1 mph - 0.00 in   Overcast
5:53 PM 64.9 °F 61.0 °F 87% 30.07 in 10.0 mi South 5.8 mph - N/A   Overcast
6:26 PM 64.9 °F 62.1 °F 90% 30.08 in 10.0 mi South 4.6 mph - 0.02 in   Overcast
6:53 PM 64.0 °F 62.1 °F 93% 30.08 in 10.0 mi WNW 8.1 mph - 0.17 in Rain Heavy Rain
7:02 PM 63.0 °F 61.0 °F 93% 30.08 in 10.0 mi NW 8.1 mph - 0.12 in Rain Heavy Rain
7:09 PM 63.0 °F 60.1 °F 90% 30.09 in 10.0 mi WNW 8.1 mph - 0.12 in Rain Light Rain
7:29 PM 62.1 °F 60.1 °F 93% 30.10 in 10.0 mi WNW 5.8 mph - 0.13 in   Overcast
7:53 PM 62.1 °F 57.9 °F 86% 30.10 in 10.0 mi WNW 4.6 mph - 0.13 in   Overcast
8:11 PM 61.0 °F 57.0 °F 87% 30.10 in 10.0 mi WNW 4.6 mph - N/A   Overcast
8:53 PM 60.1 °F 55.0 °F 83% 30.11 in 10.0 mi WNW 3.5 mph - N/A   Overcast
9:53 PM 59.0 °F 55.9 °F 90% 30.12 in 10.0 mi Calm Calm - 0.00 in Rain Light Rain
10:53 PM 60.1 °F 55.0 °F 83% 30.12 in 10.0 mi West 3.5 mph - 0.00 in   Overcast
11:53 PM 59.0 °F 55.9 °F 90% 30.12 in 10.0 mi WNW 4.6 mph - 0.00 in Rain Light Rain